星链-33731 (STARLINK-33731)

导读

STARLINK-33731是美国太空探索技术公司星链星座的组网卫星,星链是美国打造的大型低轨卫星互联网项目,旨在为全球提供高速卫星互联网接入服务。该星于2025年4月6日发射入轨,延续星链星座的部署节奏,进一步补充低轨卫星星座的网络覆盖与服务容量。

Basic Information
目录编号:
63475
目录名称:
STARLINK-33731
国际标识:
2025-070R
轨道中心:
EARTH
卫星名称:
星链-33731
卫星全名:
星链-33731 (STARLINK-33731)
卫星状态:
在轨 (已飞行523 天)
发射日期:
2025-04-06 UTC
国别 :
美国 (US)
星等 :
--
This satellite is enrolled in the Space Conjunction Data Service (SCDS) and the current flight risk assessment level is: High Risk
Orbit Information
数据来源 国际轨道数据 AOE轨道数据
星历时间 2026-09-10T18:02:24+0800
23小时前
查看轨道信息
2026-09-07T02:00:00+0800
4天前
查看轨道信息
半长轴 6861.177km 6861.188km
偏心率 0.0001448 0.0001251
轨道倾角 43.000° 43.001°
近地点辐角 276.572° 273.824°
升交点赤经 296.953° 317.671°
平近点角 83.497° 49.414°
近地点 482.046km 482.192km
远地点 484.034km 483.91km
周期 94.267分钟 94.267分钟
每日圈数 15.275831 15.275794
Detailed Information
固有亮度:
5
最大亮度:
2.5
卫星平台:
Starlink V1.0
覆盖范围:
全球
运营商:
太空探索技术公司
运营商所在国:
美国
制造商(研发单位):
太空探索技术公司
制造商所在国:
美国
使用方式:
暂无
Satellite Introduction
Starlink 计划是 SpaceX 推出的全球卫星互联网项目,通过发射低轨道卫星,为全球尤其是偏远地区提供高速、低延迟的互联网服务。自 2019 年起,Starlink 已部署数千颗卫星,旨在缩小全球数字鸿沟,推动互联网普及。该项目还为军事、航空等行业提供通信支持,带来广泛经济效益。
2D Orbit Map
3D Orbit Map
Orbit Altitude Analysis Chart
Orbit Inclination Analysis Chart
Orbit Comprehensive Analysis Chart
View Comprehensive Chart
Conjunction Data List
Event ID Objects TCA Miss Dist (km) Collision Risk Probability Collision Risk Index (CRI) Action
CDM_260912-054506-347506-400321
2026-09-12T
05:45:35+0000
0.032 km
近距离
1.521658E-3 极高风险 0.99
CDM_260912-234705-562006-347521
2026-09-12T
23:47:53+0000
0.127 km
中距离
9.392606E-4 高风险 0.94
CDM_260912-204006-347506-400321
2026-09-12T
20:40:00+0000
0.581 km
远距离
9.529821E-5 中风险 0.75
CDM_260913-074505-845706-347521
2026-09-13T
07:45:28+0000
0.671 km
远距离
7.379135E-5 中风险 0.72
CDM_260913-232806-347506-378721
2026-09-13T
23:28:55+0000
1.195 km
极远距离
1.116414E-5 中风险 0.56
CDM_260913-061105-845706-347522
2026-09-13T
06:11:18+0000
1.385 km
极远距离
6.600767E-6 低风险 0.51
CDM_260912-002505-233406-347521
2026-09-12T
00:25:38+0000
1.602 km
极远距离
4.513737E-6 低风险 0.48
CDM_260913-215406-347506-378721
2026-09-13T
21:54:46+0000
1.705 km
极远距离
3.486527E-6 低风险 0.46
CDM_260912-221305-562006-347521
2026-09-12T
22:13:43+0000
1.703 km
极远距离
2.904555E-6 低风险 0.44
CDM_260912-071906-347506-400321
2026-09-12T
07:19:44+0000
1.804 km
极远距离
2.508236E-6 低风险 0.43
Miss Distance Evolution Trend with All Objects
Collision Probability Evolution Trend with All Objects